STARLINK-1773 (46679 NORAD) Tracking and Keplerian Element Data

This shows tracking and keplerian element data for the satellite.

Feedback or suggestion? Click here.




ElementValue
Catalog46679
NameSTARLINK-1773
Epoch Orbit1481
Epoch Day17.91667824
Epoch Year2021
RAAN21.128
Inclination53.0552
Eccentricity0.0002813
Argument of Perigee345.2504
Mean Anonmoly73.7193
Mean Motion15.6279237
Decay Rate0.00054226
L11 46679U 20073K 21017.91667824 .00054226 00000-0 59314-3 0 9992
L22 46679 53.0552 21.1280 0002813 345.2504 73.7193 15.62792370 14811

Live tracking and technical data element details for STARLINK-1773 (NORAD 46679). STARLINK-1773 can be tracked NOW for your location showing map with azimuth and elevation plus other details from your city location.

Track the satellite on the map from your city or location and see movement details for azimuth, elevation, latitude, longitude, range, height, and movement on the map or in text.







IsCatalogInMostPopularTable: catalog: 46679, numindb: 28
Update: records affected: 1



GetName: 46679 STARLINK-1773

Hit Count: updated at: Tue, 19 Jan 2021 03:04:07 GMT